Terminal Aerodrome Forecast
Issued by NWS Omaha/Valley, NE

Home | Current Version | Previous Version | Graphics & Text | Print | Product List | Glossary On
Versions: 1 2 3 4 5 6 7 8 9 10 11 12 13 14 15 16 17 18 19 20 21 22 23 24 25 26 27 28 29 30 31 32 33 34 35 36 37 38 39 40 41 42 43 44 45
612
FTUS43 KOAX 052320
TAFOFK
TAF
KOFK 052320Z 0600/0624 31009KT P6SM OVC100
     FM060100 31007KT P6SM OVC020
      TEMPO 0609/0613 4SM BR
     FM061300 21007KT P6SM BKN250=

USA.gov is the U.S. government's official web portal to all federal, state and local government web resources and services.